Lake Charles Regional, LA

6:58 PM CDT on August 22, 2017 (GMT -0500)
Lake Charles Regional

Weather History for KLCH - April, 2013

Change the Weather History Date:

Tuesday, April 16, 2013

  Actual Average Record
Temperature  
Mean Temperature 79 °F 68 °F  
Max Temperature 84 °F 78 °F 90 °F (1925)
Min Temperature 74 °F 58 °F 36 °F (2014)
Degree Days  
Heating Degree Days 0 1  
Month to date heating degree days 37 35  
Since 1 July heating degree days 1219 1479  
Cooling Degree Days 14 4  
Month to date cooling degree days 57 57  
Year to date cooling degree days 118 129  
Growing Degree Days 28 (Base 50)    
Moisture  
Dew Point 72 °F    
Average Humidity 81    
Maximum Humidity 93    
Minimum Humidity 69    
Precipitation  
Precipitation T in 0.11 in 4.06 in (1957)
Month to date precipitation 4.27 1.73  
Year to date precipitation 23.03 14.08  
Snow  
Snow 0.00 in 0.00 in 0.00 in ()
Month to date snowfall 0.0 0.0  
Since 1 July snowfall 0.0 0.1  
Snow Depth 0.00 in    
Sea Level Pressure  
Sea Level Pressure 29.98 in    
Wind  
Wind Speed 12 mph (SSE)    
Max Wind Speed 21 mph    
Max Gust Speed 26 mph    
Visibility 9 miles    
Events Rain    
T = Trace of Precipitation, MM = Missing Value Source: NWS Daily Summary

Daily Weather History Graph

Daily Weather History Graph

Search for Another Location

Airport or City:

Trip Planner

Search our weather history database for the weather conditions in past years. The results will help you decide how hot, cold, wet, or windy it might be!

Date:

Astronomy

Apr. 16, 2013 Rise Set
Actual Time 6:44 AM CDT 7:41 PM CDT
Civil Twilight 6:19 AM CDT 8:05 PM CDT
Nautical Twilight 5:50 AM CDT 8:34 PM CDT
Astronomical Twilight 5:20 AM CDT 9:04 PM CDT
Moon 11:14 AM CDT (4/16) 12:27 AM CDT (4/16)
Length of Visible Light 13h 45m
Length of Day
12h 56m
Waxing Crescent, 33% of the Moon is Illuminated
Apr 16
Waxing Crescent
Apr 18
First Quarter
Apr 25
Full
May 2
Last Quarter
May 9
New

Hourly Weather History & Observations

Time (CDT) Temp. Heat Index Dew Point Humidity Pressure Visibility Wind Dir Wind Speed Gust Speed Precip Events Conditions
12:18 AM 73.4 °F - 71.6 °F 94% 29.90 in 5.0 mi SSE 8.1 mph - N/A   Overcast
12:53 AM 73.9 °F - 72.0 °F 93% 29.92 in 5.0 mi SSE 6.9 mph - N/A   Overcast
1:09 AM 73.4 °F - 71.6 °F 94% 29.90 in 4.0 mi SSE 6.9 mph - N/A   Overcast
1:53 AM 75.0 °F - 72.0 °F 90% 29.91 in 7.0 mi SSE 10.4 mph - 0.00 in   Overcast
2:53 AM 75.0 °F - 72.0 °F 90% 29.91 in 8.0 mi SSE 10.4 mph - N/A   Overcast
3:53 AM 75.0 °F - 72.0 °F 90% 29.91 in 9.0 mi SSE 10.4 mph - N/A   Overcast
4:27 AM 75.2 °F - 71.6 °F 89% 29.89 in 9.0 mi SSE 10.4 mph - N/A   Overcast
4:50 AM 75.2 °F - 71.6 °F 89% 29.89 in 8.0 mi SSE 8.1 mph - N/A   Overcast
4:53 AM 75.0 °F - 72.0 °F 90% 29.92 in 8.0 mi SSE 9.2 mph - N/A   Overcast
5:53 AM 75.0 °F - 72.0 °F 90% 29.94 in 7.0 mi SSE 8.1 mph - N/A   Overcast
6:26 AM 73.4 °F - 71.6 °F 94% 29.93 in 2.5 mi SSE 11.5 mph - 0.00 in Rain Light Rain
6:37 AM 73.4 °F - 71.6 °F 94% 29.93 in 3.0 mi SSE 9.2 mph - 0.00 in Rain Light Rain
6:53 AM 73.4 °F - 71.6 °F 94% 29.94 in 6.0 mi SSE 8.1 mph - N/A   Overcast
7:53 AM 75.0 °F - 72.0 °F 90% 29.98 in 8.0 mi SSE 10.4 mph - N/A   Overcast
8:35 AM 75.2 °F - 71.6 °F 89% 29.97 in 10.0 mi SSE 11.5 mph - N/A   Overcast
8:48 AM 75.2 °F - 71.6 °F 89% 29.97 in 10.0 mi South 6.9 mph - N/A   Overcast
8:53 AM 75.9 °F - 72.0 °F 87% 30.00 in 10.0 mi SSE 9.2 mph - N/A   Overcast
9:53 AM 77.0 °F - 71.1 °F 82% 30.02 in 10.0 mi SSE 13.8 mph - N/A   Overcast
10:53 AM 78.1 °F - 72.0 °F 81% 30.03 in 10.0 mi SSE 12.7 mph - 0.00 in Rain Light Rain
11:51 AM 78.8 °F - 71.6 °F 78% 30.01 in 10.0 mi SSE 11.5 mph - 0.00 in   Overcast
11:53 AM 79.0 °F - 71.1 °F 77% 30.03 in 10.0 mi SSE 11.5 mph - 0.00 in   Overcast
12:01 PM 78.8 °F - 71.6 °F 78% 30.00 in 10.0 mi South 9.2 mph - N/A   Overcast
12:20 PM 80.6 °F 84.6 °F 71.6 °F 74% 30.00 in 10.0 mi SSE 16.1 mph 19.6 mph N/A   Overcast
12:40 PM 80.6 °F 84.6 °F 71.6 °F 74% 30.01 in 10.0 mi South 11.5 mph 18.4 mph N/A   Overcast
12:53 PM 81.0 °F 84.9 °F 71.1 °F 72% 30.03 in 10.0 mi South 9.2 mph 19.6 mph N/A   Overcast
1:06 PM 80.6 °F 84.6 °F 71.6 °F 74% 30.00 in 10.0 mi SSE 9.2 mph - N/A   Overcast
1:53 PM 82.0 °F 86.7 °F 72.0 °F 71% 30.01 in 10.0 mi SSE 11.5 mph 18.4 mph N/A   Overcast
2:13 PM 80.6 °F 84.6 °F 71.6 °F 74% 29.98 in 10.0 mi SSE 12.7 mph - N/A   Overcast
2:42 PM 82.4 °F 87.2 °F 71.6 °F 70% 29.98 in 10.0 mi SSE 16.1 mph 20.7 mph N/A   Overcast
2:53 PM 81.0 °F 85.2 °F 72.0 °F 74% 30.01 in 10.0 mi SSE 12.7 mph 20.7 mph N/A   Overcast
3:03 PM 80.6 °F 84.6 °F 71.6 °F 74% 29.99 in 10.0 mi South 9.2 mph - N/A   Overcast
3:23 PM 82.4 °F 87.2 °F 71.6 °F 70% 29.98 in 10.0 mi SSE 16.1 mph 23.0 mph N/A   Mostly Cloudy
3:31 PM 80.6 °F 84.6 °F 71.6 °F 74% 29.98 in 10.0 mi SSE 16.1 mph 23.0 mph N/A   Mostly Cloudy
3:53 PM 81.0 °F 85.2 °F 72.0 °F 74% 30.00 in 10.0 mi SSE 13.8 mph 21.9 mph N/A   Overcast
4:27 PM 80.6 °F 84.6 °F 71.6 °F 74% 29.97 in 10.0 mi South 10.4 mph - N/A   Overcast
4:37 PM 80.6 °F 84.6 °F 71.6 °F 74% 29.97 in 10.0 mi SSE 12.7 mph 20.7 mph N/A   Overcast
4:53 PM 80.1 °F 83.8 °F 72.0 °F 76% 30.00 in 10.0 mi SSE 10.4 mph - N/A   Overcast
5:29 PM 78.8 °F - 71.6 °F 78% 29.97 in 9.0 mi SSE 13.8 mph 19.6 mph N/A   Overcast
5:40 PM 77.0 °F - 71.6 °F 83% 29.97 in 6.0 mi SSE 15.0 mph - N/A   Haze
5:53 PM 75.9 °F - 73.0 °F 91% 29.99 in 3.0 mi SE 15.0 mph - 0.00 in Rain Light Rain
6:01 PM 75.2 °F - 73.4 °F 94% 29.97 in 6.0 mi SSE 11.5 mph - 0.00 in   Overcast
6:53 PM 75.9 °F - 72.0 °F 87% 30.00 in 6.0 mi SE 10.4 mph - 0.00 in   Overcast
7:27 PM 75.2 °F - 73.4 °F 94% 29.99 in 7.0 mi SE 9.2 mph - N/A   Overcast
7:47 PM 75.2 °F - 71.6 °F 89% 29.99 in 8.0 mi SE 8.1 mph - N/A   Overcast
7:53 PM 75.9 °F - 72.0 °F 87% 30.01 in 9.0 mi SE 10.4 mph - N/A   Overcast
8:07 PM 77.0 °F - 71.6 °F 83% 29.98 in 10.0 mi SE 12.7 mph - N/A   Overcast
8:53 PM 77.0 °F - 72.0 °F 84% 30.02 in 10.0 mi SE 15.0 mph - N/A   Overcast
9:36 PM 77.0 °F - 71.6 °F 83% 30.01 in 10.0 mi SSE 13.8 mph 21.9 mph N/A   Overcast
9:48 PM 77.0 °F - 71.6 °F 83% 30.01 in 10.0 mi SE 13.8 mph - N/A   Overcast
9:53 PM 75.9 °F - 72.0 °F 87% 30.04 in 10.0 mi SE 13.8 mph - N/A   Overcast
10:02 PM 75.2 °F - 71.6 °F 89% 30.01 in 10.0 mi SE 16.1 mph - N/A   Overcast
10:36 PM 75.2 °F - 71.6 °F 89% 30.01 in 10.0 mi SE 13.8 mph - N/A   Overcast
10:48 PM 75.2 °F - 71.6 °F 89% 30.01 in 10.0 mi SSE 16.1 mph - N/A   Overcast
10:53 PM 75.9 °F - 72.0 °F 87% 30.03 in 10.0 mi SE 13.8 mph - N/A   Overcast
11:53 PM 75.9 °F - 72.0 °F 87% 30.01 in 10.0 mi SE 17.3 mph 23.0 mph N/A   Overcast